Time,TemperatureF,DewpointF,PressureIn,WindDirection,WindDirectionDegrees,WindSpeedMPH,WindSpeedGustMPH,Humidity,HourlyPrecipIn,Conditions,Clouds,dailyrainin,SolarRadiationWatts/m^2,SoftwareType,DateUTC
2013-12-12 00:00:00,18.6,13.7,30.50,WNW,298,1.0,1.0,81,0.00,,,0.01,0,Wunderground v.1.15,2013-12-12 05:00:00,
2013-12-12 00:05:00,18.5,13.6,30.50,WNW,298,0.0,7.0,81,0.00,,,0.00,0,Wunderground v.1.15,2013-12-12 05:05:00,
2013-12-12 00:10:00,18.3,13.7,30.50,WNW,297,0.0,7.0,82,0.00,,,0.00,0,Wunderground v.1.15,2013-12-12 05:10:00,
2013-12-12 00:15:00,18.1,13.5,30.50,WNW,297,0.0,7.0,82,0.00,,,0.00,0,Wunderground v.1.15,2013-12-12 05:15:00,
2013-12-12 00:20:00,17.9,13.3,30.50,WNW,297,0.0,7.0,82,0.00,,,0.00,0,Wunderground v.1.15,2013-12-12 05:20:00,
2013-12-12 00:25:00,17.8,13.5,30.51,WNW,297,0.0,7.0,83,0.00,,,0.00,0,Wunderground v.1.15,2013-12-12 05:25:00,
2013-12-12 00:30:00,17.7,13.4,30.51,WNW,297,0.0,7.0,83,0.00,,,0.00,0,Wunderground v.1.15,2013-12-12 05:30:00,
2013-12-12 00:35:00,17.5,13.5,30.51,WNW,297,0.0,7.0,84,0.00,,,0.00,0,Wunderground v.1.15,2013-12-12 05:35:00,
2013-12-12 00:40:00,17.2,13.2,30.51,WNW,297,0.0,7.0,84,0.00,,,0.00,0,Wunderground v.1.15,2013-12-12 05:40:00,
2013-12-12 00:45:00,17.0,13.0,30.51,WNW,297,1.0,7.0,84,0.00,,,0.00,0,Wunderground v.1.15,2013-12-12 05:45:00,
2013-12-12 00:55:00,16.9,12.6,30.51,WNW,297,0.0,7.0,83,0.00,,,0.00,0,Wunderground v.1.15,2013-12-12 05:55:00,
2013-12-12 01:00:00,16.9,12.9,30.51,WNW,297,0.0,7.0,84,0.00,,,0.00,0,Wunderground v.1.15,2013-12-12 06:00:00,
2013-12-12 01:05:00,16.7,12.7,30.50,WNW,297,0.0,7.0,84,0.00,,,0.00,0,Wunderground v.1.15,2013-12-12 06:05:00,
2013-12-12 01:10:00,16.5,12.5,30.50,WNW,297,0.0,7.0,84,0.00,,,0.00,0,Wunderground v.1.15,2013-12-12 06:10:00,
2013-12-12 01:15:00,16.3,12.6,30.51,WNW,297,0.0,7.0,85,0.00,,,0.00,0,Wunderground v.1.15,2013-12-12 06:15:00,
2013-12-12 01:20:00,16.1,12.7,30.51,WNW,297,0.0,7.0,86,0.00,,,0.00,0,Wunderground v.1.15,2013-12-12 06:20:00,
2013-12-12 01:25:00,15.9,12.5,30.51,WNW,297,0.0,7.0,86,0.00,,,0.00,0,Wunderground v.1.15,2013-12-12 06:25:00,
2013-12-12 01:30:00,15.9,12.7,30.51,WNW,297,0.0,7.0,87,0.00,,,0.00,0,Wunderground v.1.15,2013-12-12 06:30:00,
2013-12-12 01:40:00,15.6,12.2,30.51,WNW,297,0.0,7.0,86,0.00,,,0.00,0,Wunderground v.1.15,2013-12-12 06:40:00,
2013-12-12 01:45:00,15.5,12.1,30.52,WNW,296,0.0,7.0,86,0.00,,,0.00,0,Wunderground v.1.15,2013-12-12 06:45:00,
2013-12-12 01:50:00,15.5,12.1,30.51,WNW,296,0.0,7.0,86,0.00,,,0.00,0,Wunderground v.1.15,2013-12-12 06:50:00,
2013-12-12 01:55:00,15.4,11.7,30.51,WNW,296,0.0,7.0,85,0.00,,,0.00,0,Wunderground v.1.15,2013-12-12 06:55:00,
2013-12-12 02:00:00,15.4,11.4,30.51,WNW,296,1.0,7.0,84,0.00,,,0.00,0,Wunderground v.1.15,2013-12-12 07:00:00,
2013-12-12 02:05:00,15.3,11.3,30.51,WNW,296,1.0,7.0,84,0.00,,,0.00,0,Wunderground v.1.15,2013-12-12 07:05:00,
2013-12-12 02:10:00,15.2,11.2,30.51,WNW,296,1.0,7.0,84,0.00,,,0.00,0,Wunderground v.1.15,2013-12-12 07:10:00,
2013-12-12 02:15:00,15.2,11.2,30.52,WNW,284,1.0,7.0,84,0.00,,,0.00,0,Wunderground v.1.15,2013-12-12 07:15:00,
2013-12-12 02:25:00,15.2,11.2,30.52,West,278,2.0,7.0,84,0.00,,,0.00,0,Wunderground v.1.15,2013-12-12 07:25:00,
2013-12-12 02:30:00,15.2,11.2,30.52,West,278,2.0,7.0,84,0.00,,,0.00,0,Wunderground v.1.15,2013-12-12 07:30:00,
2013-12-12 02:35:00,15.0,11.0,30.52,WNW,287,2.0,7.0,84,0.00,,,0.00,0,Wunderground v.1.15,2013-12-12 07:35:00,
2013-12-12 02:45:00,14.8,10.8,30.52,WNW,287,1.0,7.0,84,0.00,,,0.00,0,Wunderground v.1.15,2013-12-12 07:45:00,
2013-12-12 02:50:00,14.6,10.6,30.52,WNW,287,1.0,7.0,84,0.00,,,0.00,0,Wunderground v.1.15,2013-12-12 07:50:00,
2013-12-12 02:55:00,14.5,10.8,30.52,WNW,284,2.0,7.0,85,0.00,,,0.00,0,Wunderground v.1.15,2013-12-12 07:55:00,
2013-12-12 03:00:00,14.4,10.4,30.52,WNW,284,2.0,2.0,84,0.00,,,0.00,0,Wunderground v.1.15,2013-12-12 08:00:00,
2013-12-12 03:10:00,14.2,10.5,30.53,WNW,284,1.0,1.0,85,0.00,,,0.00,0,Wunderground v.1.15,2013-12-12 08:10:00,
2013-12-12 03:15:00,14.2,10.5,30.52,WNW,283,1.0,2.0,85,0.00,,,0.00,0,Wunderground v.1.15,2013-12-12 08:15:00,
2013-12-12 03:20:00,14.1,10.4,30.52,WNW,283,1.0,7.0,85,0.00,,,0.00,0,Wunderground v.1.15,2013-12-12 08:20:00,
2013-12-12 03:25:00,14.0,10.3,30.52,WNW,283,1.0,7.0,85,0.00,,,0.00,0,Wunderground v.1.15,2013-12-12 08:25:00,
2013-12-12 03:30:00,13.9,10.2,30.53,WNW,283,0.0,7.0,85,0.00,,,0.00,0,Wunderground v.1.15,2013-12-12 08:30:00,
2013-12-12 03:35:00,13.7,10.0,30.53,WNW,291,0.0,7.0,85,0.00,,,0.00,0,Wunderground v.1.15,2013-12-12 08:35:00,
2013-12-12 03:40:00,13.7,10.3,30.52,WNW,291,1.0,1.0,86,0.00,,,0.00,0,Wunderground v.1.15,2013-12-12 08:40:00,
2013-12-12 03:50:00,13.5,10.1,30.52,WNW,291,0.0,7.0,86,0.00,,,0.00,0,Wunderground v.1.15,2013-12-12 08:50:00,
2013-12-12 04:00:00,13.6,10.2,30.52,NW,326,1.0,7.0,86,0.00,,,0.00,0,Wunderground v.1.15,2013-12-12 09:00:00,
2013-12-12 04:05:00,13.5,10.1,30.52,NW,326,1.0,7.0,86,0.00,,,0.00,0,Wunderground v.1.15,2013-12-12 09:05:00,
2013-12-12 04:10:00,13.5,10.1,30.52,NW,309,1.0,1.0,86,0.00,,,0.00,0,Wunderground v.1.15,2013-12-12 09:10:00,
2013-12-12 04:15:00,13.4,10.0,30.52,NW,309,0.0,7.0,86,0.00,,,0.00,0,Wunderground v.1.15,2013-12-12 09:15:00,
2013-12-12 04:20:00,13.2,9.8,30.52,NW,309,0.0,7.0,86,0.00,,,0.00,0,Wunderground v.1.15,2013-12-12 09:20:00,
2013-12-12 04:25:00,13.2,9.8,30.52,NW,309,0.0,7.0,86,0.00,,,0.00,0,Wunderground v.1.15,2013-12-12 09:25:00,
2013-12-12 04:30:00,12.8,9.4,30.52,NW,308,1.0,7.0,86,0.00,,,0.00,0,Wunderground v.1.15,2013-12-12 09:30:00,
2013-12-12 04:35:00,12.5,9.4,30.51,WNW,297,2.0,7.0,87,0.00,,,0.00,0,Wunderground v.1.15,2013-12-12 09:35:00,
2013-12-12 04:45:00,12.3,9.2,30.51,WNW,295,2.0,7.0,87,0.00,,,0.00,0,Wunderground v.1.15,2013-12-12 09:45:00,
2013-12-12 04:50:00,12.1,9.0,30.51,WNW,295,1.0,7.0,87,0.00,,,0.00,0,Wunderground v.1.15,2013-12-12 09:50:00,
2013-12-12 04:55:00,12.0,8.9,30.51,WNW,295,1.0,7.0,87,0.00,,,0.00,0,Wunderground v.1.15,2013-12-12 09:55:00,
2013-12-12 05:00:00,11.9,9.0,30.52,WNW,295,1.0,1.0,88,0.00,,,0.00,0,Wunderground v.1.15,2013-12-12 10:00:00,
2013-12-12 05:05:00,11.9,8.8,30.51,WNW,295,0.0,7.0,87,0.00,,,0.00,0,Wunderground v.1.15,2013-12-12 10:05:00,
2013-12-12 05:10:00,11.8,8.9,30.52,WNW,295,0.0,7.0,88,0.00,,,0.00,0,Wunderground v.1.15,2013-12-12 10:10:00,
2013-12-12 05:15:00,11.7,8.8,30.51,WNW,295,1.0,7.0,88,0.00,,,0.00,0,Wunderground v.1.15,2013-12-12 10:15:00,
2013-12-12 05:25:00,11.7,8.6,30.51,WNW,295,0.0,7.0,87,0.00,,,0.00,0,Wunderground v.1.15,2013-12-12 10:25:00,
2013-12-12 05:30:00,11.7,8.6,30.51,WNW,295,1.0,1.0,87,0.00,,,0.00,0,Wunderground v.1.15,2013-12-12 10:30:00,
2013-12-12 05:35:00,11.7,8.6,30.51,WNW,295,0.0,7.0,87,0.00,,,0.00,0,Wunderground v.1.15,2013-12-12 10:35:00,
2013-12-12 05:40:00,11.5,8.4,30.51,WNW,295,1.0,7.0,87,0.00,,,0.00,0,Wunderground v.1.15,2013-12-12 10:40:00,
2013-12-12 05:45:00,11.3,8.2,30.52,WNW,296,2.0,7.0,87,0.00,,,0.00,0,Wunderground v.1.15,2013-12-12 10:45:00,
2013-12-12 05:50:00,11.2,8.1,30.52,WNW,296,2.0,7.0,87,0.00,,,0.00,0,Wunderground v.1.15,2013-12-12 10:50:00,
2013-12-12 05:55:00,10.9,7.8,30.52,WNW,296,2.0,7.0,87,0.00,,,0.00,0,Wunderground v.1.15,2013-12-12 10:55:00,
2013-12-12 06:05:00,10.8,7.7,30.52,WNW,297,1.0,7.0,87,0.00,,,0.00,0,Wunderground v.1.15,2013-12-12 11:05:00,
2013-12-12 06:15:00,10.9,8.0,30.52,WNW,297,0.0,7.0,88,0.00,,,0.00,0,Wunderground v.1.15,2013-12-12 11:15:00,
2013-12-12 06:20:00,10.8,7.7,30.52,WNW,297,0.0,7.0,87,0.00,,,0.00,0,Wunderground v.1.15,2013-12-12 11:20:00,
2013-12-12 06:25:00,10.7,7.8,30.52,WNW,297,0.0,7.0,88,0.00,,,0.00,0,Wunderground v.1.15,2013-12-12 11:25:00,
2013-12-12 06:30:00,10.6,7.7,30.52,WNW,297,0.0,7.0,88,0.00,,,0.00,0,Wunderground v.1.15,2013-12-12 11:30:00,
2013-12-12 06:35:00,10.5,7.6,30.52,WNW,297,0.0,7.0,88,0.00,,,0.00,0,Wunderground v.1.15,2013-12-12 11:35:00,
2013-12-12 06:40:00,10.5,7.6,30.52,WNW,297,0.0,7.0,88,0.00,,,0.00,0,Wunderground v.1.15,2013-12-12 11:40:00,
2013-12-12 06:45:00,10.4,7.6,30.52,WNW,297,0.0,7.0,88,0.00,,,0.00,0,Wunderground v.1.15,2013-12-12 11:45:00,
2013-12-12 06:55:00,10.2,7.4,30.53,WNW,300,1.0,7.0,88,0.00,,,0.00,0,Wunderground v.1.15,2013-12-12 11:55:00,
2013-12-12 07:00:00,10.3,7.5,30.52,WNW,300,0.0,7.0,88,0.00,,,0.00,0,Wunderground v.1.15,2013-12-12 12:00:00,
2013-12-12 07:05:00,10.3,7.5,30.52,WNW,300,0.0,7.0,88,0.00,,,0.00,0,Wunderground v.1.15,2013-12-12 12:05:00,
2013-12-12 07:10:00,10.3,7.5,30.52,WNW,300,0.0,7.0,88,0.00,,,0.00,0,Wunderground v.1.15,2013-12-12 12:10:00,
2013-12-12 07:15:00,10.3,7.5,30.52,WNW,300,0.0,7.0,88,0.00,,,0.00,0,Wunderground v.1.15,2013-12-12 12:15:00,
2013-12-12 07:20:00,10.0,6.9,30.52,WNW,300,0.0,7.0,87,0.00,,,0.00,0,Wunderground v.1.15,2013-12-12 12:20:00,
2013-12-12 07:25:00,9.7,6.6,30.52,WNW,300,0.0,7.0,87,0.00,,,0.00,0,Wunderground v.1.15,2013-12-12 12:25:00,
2013-12-12 07:35:00,9.2,6.1,30.52,WNW,300,0.0,7.0,87,0.00,,,0.00,0,Wunderground v.1.15,2013-12-12 12:35:00,
2013-12-12 07:40:00,9.1,6.0,30.52,WNW,300,0.0,7.0,87,0.00,,,0.00,0,Wunderground v.1.15,2013-12-12 12:40:00,
2013-12-12 07:45:00,9.0,6.2,30.52,WNW,300,0.0,7.0,88,0.00,,,0.00,0,Wunderground v.1.15,2013-12-12 12:45:00,
2013-12-12 07:50:00,8.7,5.9,30.52,WNW,300,0.0,7.0,88,0.00,,,0.00,0,Wunderground v.1.15,2013-12-12 12:50:00,
2013-12-12 07:55:00,8.5,5.7,30.53,WNW,300,0.0,7.0,88,0.00,,,0.00,5,Wunderground v.1.15,2013-12-12 12:55:00,
2013-12-12 08:00:00,8.4,5.6,30.52,WNW,300,0.0,7.0,88,0.00,,,0.00,7,Wunderground v.1.15,2013-12-12 13:00:00,
2013-12-12 08:05:00,8.3,5.5,30.53,WNW,300,0.0,7.0,88,0.00,,,0.00,11,Wunderground v.1.15,2013-12-12 13:05:00,
2013-12-12 08:15:00,8.3,5.5,30.52,WNW,300,0.0,7.0,88,0.00,,,0.00,14,Wunderground v.1.15,2013-12-12 13:15:00,
2013-12-12 08:20:00,8.3,5.5,30.52,WNW,300,0.0,7.0,88,0.00,,,0.00,19,Wunderground v.1.15,2013-12-12 13:20:00,
2013-12-12 08:25:00,8.6,6.0,30.52,WNW,300,0.0,7.0,89,0.00,,,0.00,25,Wunderground v.1.15,2013-12-12 13:25:00,
2013-12-12 08:30:00,9.0,6.2,30.52,WNW,300,0.0,7.0,88,0.00,,,0.00,35,Wunderground v.1.15,2013-12-12 13:30:00,
2013-12-12 08:35:00,9.5,6.7,30.52,WNW,300,0.0,7.0,88,0.00,,,0.00,37,Wunderground v.1.15,2013-12-12 13:35:00,
2013-12-12 08:40:00,10.0,7.2,30.52,WNW,300,0.0,7.0,88,0.00,,,0.00,53,Wunderground v.1.15,2013-12-12 13:40:00,
2013-12-12 08:45:00,10.4,7.6,30.52,WNW,300,0.0,7.0,88,0.00,,,0.00,60,Wunderground v.1.15,2013-12-12 13:45:00,
2013-12-12 08:55:00,10.7,7.6,30.53,WNW,300,0.0,7.0,87,0.00,,,0.00,79,Wunderground v.1.15,2013-12-12 13:55:00,
2013-12-12 09:00:00,11.1,8.2,30.53,WNW,300,0.0,7.0,88,0.00,,,0.00,90,Wunderground v.1.15,2013-12-12 14:00:00,
2013-12-12 09:05:00,11.6,8.5,30.53,WNW,300,0.0,7.0,87,0.00,,,0.00,102,Wunderground v.1.15,2013-12-12 14:05:00,
2013-12-12 09:10:00,11.8,8.4,30.54,WNW,299,0.0,7.0,86,0.00,,,0.00,114,Wunderground v.1.15,2013-12-12 14:10:00,
2013-12-12 09:15:00,12.0,8.6,30.54,West,265,1.0,7.0,86,0.00,,,0.00,127,Wunderground v.1.15,2013-12-12 14:15:00,
2013-12-12 09:20:00,11.9,8.5,30.54,West,275,2.0,2.0,86,0.00,,,0.00,137,Wunderground v.1.15,2013-12-12 14:20:00,
2013-12-12 09:25:00,12.0,8.6,30.54,West,274,2.0,7.0,86,0.00,,,0.00,149,Wunderground v.1.15,2013-12-12 14:25:00,
2013-12-12 09:35:00,12.5,9.1,30.55,WSW,256,0.0,7.0,86,0.00,,,0.00,174,Wunderground v.1.15,2013-12-12 14:35:00,
2013-12-12 09:40:00,12.8,9.4,30.55,WSW,256,0.0,7.0,86,0.00,,,0.00,183,Wunderground v.1.15,2013-12-12 14:40:00,
2013-12-12 09:45:00,13.3,9.9,30.55,WSW,256,0.0,7.0,86,0.00,,,0.00,193,Wunderground v.1.15,2013-12-12 14:45:00,
2013-12-12 09:50:00,13.8,10.1,30.54,WSW,256,0.0,7.0,85,0.00,,,0.00,202,Wunderground v.1.15,2013-12-12 14:50:00,
2013-12-12 09:55:00,14.3,10.4,30.54,WSW,256,0.0,7.0,84,0.00,,,0.00,211,Wunderground v.1.15,2013-12-12 14:55:00,
2013-12-12 10:00:00,14.6,10.6,30.54,WSW,256,0.0,7.0,84,0.00,,,0.00,221,Wunderground v.1.15,2013-12-12 15:00:00,
2013-12-12 10:05:00,15.0,11.0,30.54,WSW,258,0.0,7.0,84,0.00,,,0.00,234,Wunderground v.1.15,2013-12-12 15:05:00,
2013-12-12 10:10:00,15.4,11.4,30.54,WNW,303,1.0,7.0,84,0.00,,,0.00,244,Wunderground v.1.15,2013-12-12 15:10:00,
2013-12-12 10:20:00,16.3,12.0,30.54,WNW,287,2.0,7.0,83,0.00,,,0.00,265,Wunderground v.1.15,2013-12-12 15:20:00,
2013-12-12 10:25:00,16.6,12.1,30.55,West,275,2.0,7.0,82,0.00,,,0.00,278,Wunderground v.1.15,2013-12-12 15:25:00,
2013-12-12 10:30:00,17.2,12.6,30.55,WSW,254,2.0,7.0,82,0.00,,,0.00,290,Wunderground v.1.15,2013-12-12 15:30:00,
2013-12-12 10:35:00,17.4,12.0,30.55,SSW,208,2.0,7.0,79,0.00,,,0.00,301,Wunderground v.1.15,2013-12-12 15:35:00,
2013-12-12 10:40:00,17.7,12.3,30.55,SSW,195,2.0,2.0,79,0.00,,,0.00,318,Wunderground v.1.15,2013-12-12 15:40:00,
2013-12-12 10:45:00,18.3,12.9,30.55,WSW,248,1.0,7.0,79,0.00,,,0.00,327,Wunderground v.1.15,2013-12-12 15:45:00,
2013-12-12 10:55:00,18.5,11.9,30.54,WSW,251,2.0,7.0,75,0.00,,,0.00,353,Wunderground v.1.15,2013-12-12 15:55:00,
2013-12-12 11:00:00,18.8,12.2,30.54,West,280,2.0,7.0,75,0.00,,,0.00,364,Wunderground v.1.15,2013-12-12 16:00:00,
2013-12-12 11:05:00,18.9,12.0,30.53,SSW,201,2.0,7.0,74,0.00,,,0.00,376,Wunderground v.1.15,2013-12-12 16:05:00,
2013-12-12 11:10:00,19.3,12.1,30.54,NW,307,2.0,2.0,73,0.00,,,0.00,385,Wunderground v.1.15,2013-12-12 16:10:00,
2013-12-12 11:15:00,19.7,11.8,30.54,West,272,1.0,7.0,71,0.00,,,0.00,394,Wunderground v.1.15,2013-12-12 16:15:00,
2013-12-12 11:20:00,19.9,11.7,30.54,SW,233,1.0,7.0,70,0.00,,,0.00,401,Wunderground v.1.15,2013-12-12 16:20:00,
2013-12-12 11:25:00,20.0,11.1,30.54,West,278,2.0,7.0,68,0.00,,,0.00,410,Wunderground v.1.15,2013-12-12 16:25:00,
2013-12-12 11:35:00,20.3,10.7,30.53,SW,223,2.0,7.0,66,0.00,,,0.00,422,Wunderground v.1.15,2013-12-12 16:35:00,
2013-12-12 11:40:00,20.2,9.6,30.52,NW,308,3.0,3.0,63,0.00,,,0.00,429,Wunderground v.1.15,2013-12-12 16:40:00,
2013-12-12 11:45:00,20.5,10.2,30.52,WSW,249,3.0,5.0,64,0.00,,,0.00,432,Wunderground v.1.15,2013-12-12 16:45:00,
2013-12-12 11:50:00,20.3,8.6,30.52,West,266,3.0,7.0,60,0.00,,,0.00,438,Wunderground v.1.15,2013-12-12 16:50:00,
2013-12-12 11:55:00,20.4,8.7,30.52,South,177,3.0,7.0,60,0.00,,,0.00,441,Wunderground v.1.15,2013-12-12 16:55:00,
2013-12-12 12:00:00,20.6,8.1,30.51,West,279,3.0,7.0,58,0.00,,,0.00,446,Wunderground v.1.15,2013-12-12 17:00:00,
2013-12-12 12:05:00,20.8,8.7,30.51,WSW,252,3.0,7.0,59,0.00,,,0.00,446,Wunderground v.1.15,2013-12-12 17:05:00,
2013-12-12 12:10:00,21.0,9.3,30.51,South,191,4.0,7.0,60,0.00,,,0.00,454,Wunderground v.1.15,2013-12-12 17:10:00,
2013-12-12 12:20:00,21.5,10.1,30.50,West,269,2.0,2.0,61,0.00,,,0.00,459,Wunderground v.1.15,2013-12-12 17:20:00,
2013-12-12 12:25:00,21.9,10.5,30.50,SW,220,2.0,7.0,61,0.00,,,0.00,461,Wunderground v.1.15,2013-12-12 17:25:00,
2013-12-12 12:30:00,22.3,10.5,30.50,West,267,2.0,7.0,60,0.00,,,0.00,462,Wunderground v.1.15,2013-12-12 17:30:00,
2013-12-12 12:35:00,22.2,10.4,30.50,WSW,241,2.0,7.0,60,0.00,,,0.00,461,Wunderground v.1.15,2013-12-12 17:35:00,
2013-12-12 12:40:00,22.4,9.8,30.50,SSW,213,3.0,3.0,58,0.00,,,0.00,464,Wunderground v.1.15,2013-12-12 17:40:00,
2013-12-12 12:45:00,22.9,10.7,30.49,SW,220,2.0,7.0,59,0.00,,,0.00,468,Wunderground v.1.15,2013-12-12 17:45:00,
2013-12-12 12:50:00,23.4,11.5,30.49,SW,220,2.0,7.0,60,0.00,,,0.00,464,Wunderground v.1.15,2013-12-12 17:50:00,
2013-12-12 13:00:00,23.3,10.3,30.48,WSW,239,3.0,3.0,57,0.00,,,0.00,461,Wunderground v.1.15,2013-12-12 18:00:00,
2013-12-12 13:05:00,23.6,10.6,30.48,SSE,158,2.0,7.0,57,0.00,,,0.00,462,Wunderground v.1.15,2013-12-12 18:05:00,
2013-12-12 13:10:00,23.8,10.4,30.48,SW,234,2.0,7.0,56,0.00,,,0.00,461,Wunderground v.1.15,2013-12-12 18:10:00,
2013-12-12 13:15:00,24.0,10.2,30.48,SW,236,2.0,7.0,55,0.00,,,0.00,459,Wunderground v.1.15,2013-12-12 18:15:00,
2013-12-12 13:20:00,24.0,9.7,30.48,WSW,256,3.0,7.0,54,0.00,,,0.00,455,Wunderground v.1.15,2013-12-12 18:20:00,
2013-12-12 13:25:00,24.2,10.3,30.48,West,271,3.0,7.0,55,0.00,,,0.00,454,Wunderground v.1.15,2013-12-12 18:25:00,
2013-12-12 13:30:00,24.2,8.7,30.47,SW,236,3.0,3.0,51,0.00,,,0.00,452,Wunderground v.1.15,2013-12-12 18:30:00,
2013-12-12 13:40:00,24.7,10.0,30.47,SW,233,4.0,4.0,53,0.00,,,0.00,445,Wunderground v.1.15,2013-12-12 18:40:00,
2013-12-12 13:45:00,25.4,11.0,30.46,SSW,192,2.0,7.0,54,0.00,,,0.00,441,Wunderground v.1.15,2013-12-12 18:45:00,
2013-12-12 13:50:00,26.1,11.3,30.47,WSW,245,2.0,2.0,53,0.00,,,0.00,438,Wunderground v.1.15,2013-12-12 18:50:00,
2013-12-12 13:55:00,25.8,10.1,30.46,SSW,196,2.0,7.0,51,0.00,,,0.00,432,Wunderground v.1.15,2013-12-12 18:55:00,
2013-12-12 14:00:00,26.1,10.9,30.46,SW,233,2.0,7.0,52,0.00,,,0.00,425,Wunderground v.1.15,2013-12-12 19:00:00,
2013-12-12 14:05:00,26.3,10.2,30.45,SW,224,2.0,7.0,50,0.00,,,0.00,420,Wunderground v.1.15,2013-12-12 19:05:00,
2013-12-12 14:10:00,26.2,9.2,30.45,West,272,2.0,7.0,48,0.00,,,0.00,415,Wunderground v.1.15,2013-12-12 19:10:00,
2013-12-12 14:15:00,25.9,8.9,30.46,WSW,245,3.0,7.0,48,0.00,,,0.00,408,Wunderground v.1.15,2013-12-12 19:15:00,
2013-12-12 14:20:00,25.8,9.2,30.46,SW,222,4.0,4.0,49,0.00,,,0.00,401,Wunderground v.1.15,2013-12-12 19:20:00,
2013-12-12 14:25:00,26.1,9.1,30.45,West,280,3.0,7.0,48,0.00,,,0.00,394,Wunderground v.1.15,2013-12-12 19:25:00,
2013-12-12 14:35:00,26.6,10.4,30.45,West,266,3.0,7.0,50,0.00,,,0.00,380,Wunderground v.1.15,2013-12-12 19:35:00,
2013-12-12 14:40:00,26.8,10.6,30.46,WSW,238,2.0,7.0,50,0.00,,,0.00,371,Wunderground v.1.15,2013-12-12 19:40:00,
2013-12-12 14:45:00,27.2,11.0,30.45,SW,218,2.0,7.0,50,0.00,,,0.00,364,Wunderground v.1.15,2013-12-12 19:45:00,
2013-12-12 14:50:00,27.2,10.5,30.45,SW,226,2.0,2.0,49,0.00,,,0.00,357,Wunderground v.1.15,2013-12-12 19:50:00,
2013-12-12 14:55:00,27.3,10.6,30.45,West,276,2.0,3.0,49,0.00,,,0.00,348,Wunderground v.1.15,2013-12-12 19:55:00,
2013-12-12 15:00:00,27.1,10.4,30.45,WSW,247,3.0,3.0,49,0.00,,,0.00,338,Wunderground v.1.15,2013-12-12 20:00:00,
2013-12-12 15:05:00,27.3,11.1,30.45,SW,226,3.0,4.0,50,0.00,,,0.00,330,Wunderground v.1.15,2013-12-12 20:05:00,
2013-12-12 15:10:00,27.4,10.3,30.44,SSW,204,3.0,3.0,48,0.00,,,0.00,323,Wunderground v.1.15,2013-12-12 20:10:00,
2013-12-12 15:20:00,27.9,10.7,30.45,South,186,2.0,7.0,48,0.00,,,0.00,364,Wunderground v.1.15,2013-12-12 20:20:00,
2013-12-12 15:25:00,27.8,10.6,30.44,SW,230,3.0,7.0,48,0.00,,,0.00,362,Wunderground v.1.15,2013-12-12 20:25:00,
2013-12-12 15:30:00,28.2,10.5,30.44,West,266,3.0,7.0,47,0.00,,,0.00,332,Wunderground v.1.15,2013-12-12 20:30:00,
2013-12-12 15:35:00,28.3,11.1,30.44,WSW,241,2.0,7.0,48,0.00,,,0.00,227,Wunderground v.1.15,2013-12-12 20:35:00,
2013-12-12 15:40:00,27.9,10.7,30.43,WSW,240,2.0,2.0,48,0.00,,,0.00,179,Wunderground v.1.15,2013-12-12 20:40:00,
2013-12-12 15:45:00,27.8,9.7,30.43,SSW,198,2.0,7.0,46,0.00,,,0.00,146,Wunderground v.1.15,2013-12-12 20:45:00,
2013-12-12 15:55:00,27.4,9.3,30.43,WSW,258,2.0,7.0,46,0.00,,,0.00,118,Wunderground v.1.15,2013-12-12 20:55:00,
2013-12-12 16:05:00,27.3,9.7,30.43,SW,215,1.0,7.0,47,0.00,,,0.00,53,Wunderground v.1.15,2013-12-12 21:05:00,
2013-12-12 16:10:00,27.0,9.9,30.42,SW,230,1.0,7.0,48,0.00,,,0.00,53,Wunderground v.1.15,2013-12-12 21:10:00,
2013-12-12 16:15:00,27.0,9.9,30.42,SW,225,1.0,7.0,48,0.00,,,0.00,67,Wunderground v.1.15,2013-12-12 21:15:00,
2013-12-12 16:20:00,27.0,9.9,30.42,SSW,212,0.0,7.0,48,0.00,,,0.00,77,Wunderground v.1.15,2013-12-12 21:20:00,
2013-12-12 16:25:00,27.0,10.4,30.42,SSW,206,1.0,7.0,49,0.00,,,0.00,72,Wunderground v.1.15,2013-12-12 21:25:00,
2013-12-12 16:30:00,27.0,10.4,30.42,SW,229,1.0,7.0,49,0.00,,,0.00,62,Wunderground v.1.15,2013-12-12 21:30:00,
2013-12-12 16:35:00,27.1,10.4,30.42,South,184,1.0,7.0,49,0.00,,,0.00,53,Wunderground v.1.15,2013-12-12 21:35:00,
2013-12-12 16:40:00,27.0,9.9,30.42,South,185,1.0,1.0,48,0.00,,,0.00,49,Wunderground v.1.15,2013-12-12 21:40:00,
2013-12-12 16:50:00,27.0,10.8,30.41,SW,218,1.0,7.0,50,0.00,,,0.00,32,Wunderground v.1.15,2013-12-12 21:50:00,
2013-12-12 16:55:00,27.0,10.4,30.42,SSW,205,1.0,7.0,49,0.00,,,0.00,26,Wunderground v.1.15,2013-12-12 21:55:00,
2013-12-12 17:00:00,27.0,11.3,30.42,SW,230,1.0,1.0,51,0.00,,,0.00,21,Wunderground v.1.15,2013-12-12 22:00:00,
2013-12-12 17:05:00,27.0,11.7,30.42,South,182,1.0,3.0,52,0.00,,,0.00,18,Wunderground v.1.15,2013-12-12 22:05:00,
2013-12-12 17:10:00,27.0,10.4,30.42,SW,225,1.0,7.0,49,0.00,,,0.00,14,Wunderground v.1.15,2013-12-12 22:10:00,
2013-12-12 17:15:00,27.0,10.8,30.41,SW,218,1.0,7.0,50,0.00,,,0.00,11,Wunderground v.1.15,2013-12-12 22:15:00,
2013-12-12 17:20:00,27.1,11.8,30.41,SW,218,0.0,7.0,52,0.00,,,0.00,7,Wunderground v.1.15,2013-12-12 22:20:00,
2013-12-12 17:25:00,27.0,12.1,30.41,SSW,198,1.0,7.0,53,0.00,,,0.00,5,Wunderground v.1.15,2013-12-12 22:25:00,
2013-12-12 17:35:00,27.0,13.0,30.42,SSW,204,0.0,7.0,55,0.00,,,0.00,0,Wunderground v.1.15,2013-12-12 22:35:00,
2013-12-12 17:40:00,27.1,13.5,30.42,SSW,204,0.0,7.0,56,0.00,,,0.00,0,Wunderground v.1.15,2013-12-12 22:40:00,
2013-12-12 17:45:00,27.0,13.4,30.42,SSW,204,0.0,7.0,56,0.00,,,0.00,0,Wunderground v.1.15,2013-12-12 22:45:00,
2013-12-12 17:50:00,27.2,14.8,30.42,SSW,210,0.0,7.0,59,0.00,,,0.00,0,Wunderground v.1.15,2013-12-12 22:50:00,
2013-12-12 17:55:00,27.2,13.6,30.42,SW,216,0.0,7.0,56,0.00,,,0.00,0,Wunderground v.1.15,2013-12-12 22:55:00,
2013-12-12 18:00:00,27.1,13.9,30.41,SW,216,0.0,7.0,57,0.00,,,0.00,0,Wunderground v.1.15,2013-12-12 23:00:00,
2013-12-12 18:05:00,27.0,13.8,30.41,SW,216,0.0,7.0,57,0.00,,,0.00,0,Wunderground v.1.15,2013-12-12 23:05:00,
2013-12-12 18:10:00,26.9,14.5,30.41,SW,216,0.0,7.0,59,0.00,,,0.00,0,Wunderground v.1.15,2013-12-12 23:10:00,
2013-12-12 18:15:00,26.9,14.9,30.41,SW,217,0.0,7.0,60,0.00,,,0.00,0,Wunderground v.1.15,2013-12-12 23:15:00,
2013-12-12 18:25:00,26.8,14.8,30.41,SW,216,0.0,7.0,60,0.00,,,0.00,0,Wunderground v.1.15,2013-12-12 23:25:00,
2013-12-12 18:30:00,26.8,14.4,30.41,WSW,243,0.0,7.0,59,0.00,,,0.00,0,Wunderground v.1.15,2013-12-12 23:30:00,
2013-12-12 18:35:00,26.7,14.3,30.40,WSW,241,1.0,7.0,59,0.00,,,0.00,0,Wunderground v.1.15,2013-12-12 23:35:00,
2013-12-12 18:40:00,26.7,13.9,30.40,WSW,239,1.0,1.0,58,0.00,,,0.00,0,Wunderground v.1.15,2013-12-12 23:40:00,
2013-12-12 18:45:00,26.6,13.8,30.40,SW,228,1.0,7.0,58,0.00,,,0.00,0,Wunderground v.1.15,2013-12-12 23:45:00,
2013-12-12 18:50:00,26.6,14.6,30.40,SW,228,0.0,7.0,60,0.00,,,0.00,0,Wunderground v.1.15,2013-12-12 23:50:00,
2013-12-12 18:55:00,26.5,15.6,30.39,SW,228,0.0,7.0,63,0.00,,,0.00,0,Wunderground v.1.15,2013-12-12 23:55:00,
2013-12-12 19:05:00,26.3,16.8,30.39,SW,228,0.0,7.0,67,0.00,,,0.00,0,Wunderground v.1.15,2013-12-13 00:05:00,
2013-12-12 19:10:00,26.1,17.3,30.39,SW,228,0.0,7.0,69,0.00,,,0.00,0,Wunderground v.1.15,2013-12-13 00:10:00,
2013-12-12 19:15:00,25.8,17.4,30.39,SW,228,0.0,7.0,70,0.00,,,0.00,0,Wunderground v.1.15,2013-12-13 00:15:00,
2013-12-12 19:20:00,25.5,17.4,30.39,SW,228,0.0,7.0,71,0.00,,,0.00,0,Wunderground v.1.15,2013-12-13 00:20:00,
2013-12-12 19:25:00,25.3,17.5,30.39,SW,228,0.0,7.0,72,0.00,,,0.00,0,Wunderground v.1.15,2013-12-13 00:25:00,
2013-12-12 19:30:00,25.1,17.7,30.39,SW,228,0.0,7.0,73,0.00,,,0.00,0,Wunderground v.1.15,2013-12-13 00:30:00,
2013-12-12 19:35:00,24.7,17.9,30.38,SW,228,0.0,7.0,75,0.00,,,0.00,0,Wunderground v.1.15,2013-12-13 00:35:00,
2013-12-12 19:40:00,24.3,17.5,30.38,SW,228,0.0,7.0,75,0.00,,,0.00,0,Wunderground v.1.15,2013-12-13 00:40:00,
2013-12-12 19:50:00,23.5,17.0,30.37,SW,228,0.0,7.0,76,0.00,,,0.00,0,Wunderground v.1.15,2013-12-13 00:50:00,
2013-12-12 19:55:00,23.3,16.9,30.37,SW,228,0.0,7.0,76,0.00,,,0.00,0,Wunderground v.1.15,2013-12-13 00:55:00,
2013-12-12 20:00:00,23.0,16.9,30.37,SW,228,0.0,7.0,77,0.00,,,0.00,0,Wunderground v.1.15,2013-12-13 01:00:00,
2013-12-12 20:05:00,22.9,15.8,30.36,WSW,237,0.0,7.0,74,0.00,,,0.00,0,Wunderground v.1.15,2013-12-13 01:05:00,
2013-12-12 20:10:00,22.9,15.8,30.36,WSW,237,0.0,7.0,74,0.00,,,0.00,0,Wunderground v.1.15,2013-12-13 01:10:00,
2013-12-12 20:15:00,23.1,15.1,30.36,WSW,256,0.0,7.0,71,0.00,,,0.00,0,Wunderground v.1.15,2013-12-13 01:15:00,
2013-12-12 20:20:00,23.4,14.7,30.36,WSW,247,0.0,7.0,69,0.00,,,0.00,0,Wunderground v.1.15,2013-12-13 01:20:00,
2013-12-12 20:30:00,23.9,14.9,30.35,SW,222,1.0,1.0,68,0.00,,,0.00,0,Wunderground v.1.15,2013-12-13 01:30:00,
2013-12-12 20:35:00,23.9,14.5,30.35,WSW,241,0.0,4.0,67,0.00,,,0.00,0,Wunderground v.1.15,2013-12-13 01:35:00,
2013-12-12 20:40:00,24.2,13.4,30.35,South,169,1.0,1.0,63,0.00,,,0.00,0,Wunderground v.1.15,2013-12-13 01:40:00,
2013-12-12 20:45:00,24.3,13.9,30.35,SSW,206,1.0,7.0,64,0.00,,,0.00,0,Wunderground v.1.15,2013-12-13 01:45:00,
2013-12-12 20:50:00,24.4,13.2,30.35,West,260,1.0,7.0,62,0.00,,,0.00,0,Wunderground v.1.15,2013-12-13 01:50:00,
2013-12-12 20:55:00,24.7,13.1,30.35,South,187,1.0,7.0,61,0.00,,,0.00,0,Wunderground v.1.15,2013-12-13 01:55:00,
2013-12-12 21:00:00,24.7,13.1,30.35,SW,224,1.0,7.0,61,0.00,,,0.00,0,Wunderground v.1.15,2013-12-13 02:00:00,
2013-12-12 21:05:00,24.8,13.2,30.34,WSW,251,2.0,7.0,61,0.00,,,0.00,0,Wunderground v.1.15,2013-12-13 02:05:00,
2013-12-12 21:15:00,24.9,13.3,30.34,West,274,1.0,7.0,61,0.00,,,0.00,0,Wunderground v.1.15,2013-12-13 02:15:00,
2013-12-12 21:20:00,25.0,13.1,30.34,WSW,244,1.0,7.0,60,0.00,,,0.00,0,Wunderground v.1.15,2013-12-13 02:20:00,
2013-12-12 21:25:00,25.3,13.0,30.34,SSW,201,2.0,7.0,59,0.00,,,0.00,0,Wunderground v.1.15,2013-12-13 02:25:00,
2013-12-12 21:30:00,25.3,13.3,30.33,WSW,244,2.0,2.0,60,0.00,,,0.00,0,Wunderground v.1.15,2013-12-13 02:30:00,
2013-12-12 21:35:00,25.2,13.6,30.33,WNW,288,1.0,7.0,61,0.00,,,0.00,0,Wunderground v.1.15,2013-12-13 02:35:00,
2013-12-12 21:40:00,25.1,13.2,30.33,SSW,197,1.0,7.0,60,0.00,,,0.00,0,Wunderground v.1.15,2013-12-13 02:40:00,
2013-12-12 21:50:00,25.2,13.6,30.33,WSW,249,2.0,7.0,61,0.00,,,0.00,0,Wunderground v.1.15,2013-12-13 02:50:00,
2013-12-12 21:55:00,25.3,13.3,30.33,WSW,257,2.0,7.0,60,0.00,,,0.00,0,Wunderground v.1.15,2013-12-13 02:55:00,
2013-12-12 22:00:00,25.3,13.3,30.33,SW,218,2.0,7.0,60,0.00,,,0.00,0,Wunderground v.1.15,2013-12-13 03:00:00,
2013-12-12 22:05:00,25.3,13.3,30.33,WSW,256,2.0,7.0,60,0.00,,,0.00,0,Wunderground v.1.15,2013-12-13 03:05:00,
2013-12-12 22:10:00,25.5,14.6,30.33,SW,225,3.0,8.0,63,0.00,,,0.00,0,Wunderground v.1.15,2013-12-13 03:10:00,
2013-12-12 22:15:00,25.6,13.6,30.32,WSW,254,3.0,8.0,60,0.00,,,0.00,0,Wunderground v.1.15,2013-12-13 03:15:00,
2013-12-12 22:20:00,25.5,13.5,30.32,SW,218,3.0,7.0,60,0.00,,,0.00,0,Wunderground v.1.15,2013-12-13 03:20:00,
2013-12-12 22:30:00,25.4,13.4,30.33,SW,235,3.0,3.0,60,0.00,,,0.00,0,Wunderground v.1.15,2013-12-13 03:30:00,
2013-12-12 22:35:00,25.4,13.4,30.33,South,188,4.0,4.0,60,0.00,,,0.00,0,Wunderground v.1.15,2013-12-13 03:35:00,
2013-12-12 22:40:00,25.5,13.1,30.32,SW,220,4.0,4.0,59,0.00,,,0.00,0,Wunderground v.1.15,2013-12-13 03:40:00,
2013-12-12 22:45:00,25.4,13.4,30.32,WSW,241,4.0,7.0,60,0.00,,,0.00,0,Wunderground v.1.15,2013-12-13 03:45:00,
2013-12-12 22:50:00,25.4,13.4,30.32,SW,214,3.0,7.0,60,0.00,,,0.00,0,Wunderground v.1.15,2013-12-13 03:50:00,
2013-12-12 22:55:00,25.3,13.7,30.32,South,190,4.0,7.0,61,0.00,,,0.00,0,Wunderground v.1.15,2013-12-13 03:55:00,
2013-12-12 23:00:00,25.3,13.7,30.32,SW,233,3.0,7.0,61,0.00,,,0.00,0,Wunderground v.1.15,2013-12-13 04:00:00,
2013-12-12 23:05:00,25.3,13.7,30.33,West,276,3.0,7.0,61,0.00,,,0.00,0,Wunderground v.1.15,2013-12-13 04:05:00,
2013-12-12 23:15:00,25.3,14.5,30.33,WSW,251,3.0,7.0,63,0.00,,,0.00,0,Wunderground v.1.15,2013-12-13 04:15:00,
2013-12-12 23:25:00,25.3,14.5,30.33,SW,222,4.0,7.0,63,0.00,,,0.00,0,Wunderground v.1.15,2013-12-13 04:25:00,
2013-12-12 23:30:00,25.3,14.5,30.33,West,276,4.0,7.0,63,0.00,,,0.00,0,Wunderground v.1.15,2013-12-13 04:30:00,
2013-12-12 23:35:00,25.3,14.5,30.33,SW,235,4.0,7.0,63,0.00,,,0.00,0,Wunderground v.1.15,2013-12-13 04:35:00,
2013-12-12 23:40:00,25.3,14.8,30.33,West,274,4.0,4.0,64,0.00,,,0.00,0,Wunderground v.1.15,2013-12-13 04:40:00,
2013-12-12 23:45:00,25.3,14.8,30.33,South,190,3.0,7.0,64,0.00,,,0.00,0,Wunderground v.1.15,2013-12-13 04:45:00,
2013-12-12 23:55:00,25.4,14.9,30.32,West,264,4.0,4.0,64,0.00,,,0.00,0,Wunderground v.1.15,2013-12-13 04:55:00,